World > North America > United States > New York

Solon Pond, New York Regional Weather

Lat: 42.62N, Lon: 75.92W
Wx Zone: NYZ044Web Search

Helpful Tip: Abbreviated, 7 Day, 14 Day Forecasts. There is a weather forecast for every taste.

Feedback
Solon Pond Weather Map
UTC Time: 11/23/2020, 21:40
Your Time:

Solon Pond, NY Regional Weather

Expires:202011232200;;288341
ASUS41 KBGM 232110
RWRBGM

REGIONAL WEATHER ROUNDUP
NATIONAL WEATHER SERVICE BINGHAMTON NY
400 PM EST MON NOV 23 2020

Note: "fair" indicates few or no clouds below 12,000 feet with no
significant weather and/or obstructions to visibility.

* = Station(s) that does not report precipitation, such as rain, 
snow, etc, also no thunder or fog.


NYZ009-015>018-022>025-036-037-044>046-055>057-062-232200
...Central New York...
  
CITY           SKY/WX    TMP DP  RH WIND       PRES   REMARKS
Binghamton     CLOUDY    36  26  67 NW10      30.05R WCI  28          
Cortland       CLOUDY    36  28  75 NW6       30.08R WCI  31          
Dansville      CLOUDY    41  33  73 NW5       30.13R                  
Elmira         CLOUDY    42  31  64 NW8       30.10R                  
Endicott       CLOUDY    39  27  60 CALM      30.09R                  
Ithaca         MOCLDY    37  28  70 NW9       30.09R WCI  30          
Hamilton       CLOUDY    34  30  86 NW6       30.06R WCI  29          
Monticello     MOCLDY    37  26  64 NW16G31   30.03R WCI  28          
Norwich        CLOUDY    37  28  70 NW7       30.07R WCI  32          
Oneonta        MOCLDY    34  30  86 W10G17    30.02R WCI  26          
Penn Yan       MOCLDY    41  29  62 W13       30.10R                  
Rome           MOCLDY    38  29  70 NW12      30.09R WCI  30          
Seneca Falls   CLOUDY    41  28  60 NW7       30.11R                  
Sidney         CLOUDY    37  28  70 W10G17    30.07R WCI  30          
Skaneateles    CLOUDY    37  32  81 CALM      30.08R                  
Syracuse       CLOUDY    39  32  76 W5        30.10R                  
$$
 

SKY/WX - Weather  TMP - Temperature  DP - Dew Point  RH - Relative Humidity
WIND - Wind Direction/Speed PRES - Barometric Pressure VSB - Visibility
WCI - Wind Chill Index E13G22 Wind - East Wind 13 mph/Gusts of 22 mph